COSMOS 1691 DEB

基本信息
目录编号:
16267
目录名称:
COSMOS 1691 DEB
国际标识:
1985-094L
轨道中心:
EARTH
物体状态:
在轨
发射日期:
1985-10-09 UTC
轨道信息
数据来源: 国际轨道数据
星历时间: 2026-09-11T08:33:21+0800
半长轴: 7559.743km
偏心率: 0.0078406
轨道倾角: 82.628°
近地点辐角: 262.526°
升交点赤经: 92.865°
平近点角: 252.505°
近地点: 1122.333km
远地点: 1240.879km
周期: 109.024分钟
每日圈数: 13.208158
详细信息
发射场:
PKMTR
轨道高度:
LEO
数据来源:
AOE Integration Group
参考系:
TEME
时间系统:
UTC
历元类型:
SGP4
2D轨道图
3D轨道图
轨道高度分析图
轨道倾角分析图
轨道综合分析图
查看轨道综合分析图